STARLINK-35796, 66541

Orbit data source: Space-Track

STARLINK-35796, 66541 is a payload satellite owned by SpaceX/Seattle (US) in LEO that was launched on Wed, 19 Nov 2025 UTC via an FALCON 9 launch vehicle from the Air Force Eastern Test Range (AFETR). Payload-class satellites include a variety of spacecraft equipped with specific instruments for various scientific and technological missions. These include communications satellites like Starlink; space stations such as the ISS; scientific satellites like the Hubble; Earth observation satellites from companies like Planet Labs, Umbra, and HawkEye 360; GPS; miniature CubeSats for education and research; and military/defense satellites.

Loading next visibility...
Identifier
66541, 2025-265AB
Orbit
LEO
Country
Flag of USUS
Related business
Manufacturer
SpaceX/Seattle
Mission
Operational Commercial Communications
Bus & Motor
STARLINK V2MO, Unknown motor
Mass
575 kg wet, ~530 kg dry
Launch date (UTC)
2025-11-19 (7 months ago)
Launch vehicle
FALCON 9
Launch site
Air Force Eastern Test Range (AFETR)
Object type
Payload
Rocket body
Debris
Shape & HBR
Box + 2 Pan, 17.7 m
Radar Cross Section
36.964 m², Large (>1 m²)

Expand to show TLE details & history
Last TLE update: 18 hours ago

TLE from 18 hours ago
0 STARLINK-35796
1 66541U 25265AB  26171.09447493  .00008654  00000-0  32348-3 0  9995
2 66541  43.0019  59.7166 0001466 273.3784  86.6900 15.27596632 32770
Epoch: 2026-06-20T02:16Z
TLE epoch observation values (Epoch: 2026-06-20T02:16:02.633Z)
Latitude
-0.00004°
Longitude
117.39156°
Altitude
482.717 km
Speed
7.626 km/s
True Right ascension
03h 58m 51s
True Declination
0° 00' 00"
Sunlit
Object was in daylight at epoch
Visualization orbit readout
Latitude
Unknown
Longitude
Unknown
Altitude
Unknown
Speed
Unknown
Apparent Right ascension
Unknown
Apparent Declination
Unknown
Sunlit
N/A
Visualization observer readout
Local Sidereal Time
07:12:24
Azimuth
Unknown
Elevation
Unknown
Doppler factor
Unknown
Orbital elements
Apogee altitude
485.95 km
Perigee altitude
483.938 km
Semi-major axis
6,863.081 km
Eccentricity
0.00015
Inclination
43.0019°
RAAN
59.7166°
Arg. of periapsis
273.3784°
True anomaly
86.70677°
Mean anomaly
86.69°
Eccentric anomaly
86.69839°
Mean motion
3.81737 °/min
Orbital period
94.31 mins
BSTAR
0.00032348
Loading maneuver chart data...
Computing Atmospheric mass density...
Loading historical data...
Loading historical data...
Loading historical data...
Loading historical data...
Loading historical data...
Loading historical data...
Loading historical data...

Documentation

Showing up to 5 results
|